Time,TemperatureF,DewpointF,PressureIn,WindDirection,WindDirectionDegrees,WindSpeedMPH,WindSpeedGustMPH,Humidity,HourlyPrecipIn,Conditions,Clouds,dailyrainin,SoftwareType,DateUTC
2013-11-07 00:01:00,59.6,57.3,30.07,SW,227,6.0,14.0,92,0.00,,---,0.00,VWS V14.00,2013-11-07 05:01:00,
2013-11-07 00:02:00,59.5,57.2,30.07,WSW,241,11.0,14.0,92,0.00,,---,0.00,VWS V14.00,2013-11-07 05:02:00,
2013-11-07 00:05:00,59.5,57.2,30.07,SW,218,9.0,15.0,92,0.00,,---,0.00,VWS V14.00,2013-11-07 05:05:00,
2013-11-07 00:06:00,59.5,57.2,30.06,SW,224,7.0,15.0,92,0.00,,---,0.00,VWS V14.00,2013-11-07 05:06:00,
2013-11-07 00:07:00,59.5,57.2,30.06,SSW,210,9.0,15.0,92,0.00,,---,0.00,VWS V14.00,2013-11-07 05:07:00,
2013-11-07 00:11:00,59.3,57.3,30.06,SW,229,12.0,15.0,93,0.00,,---,0.00,VWS V14.00,2013-11-07 05:11:00,
2013-11-07 00:16:00,59.4,57.4,30.06,SSW,200,8.0,16.0,93,0.00,,---,0.00,VWS V14.00,2013-11-07 05:16:00,
2013-11-07 00:21:00,59.5,57.8,30.06,SW,223,13.0,16.0,94,0.00,,---,0.00,VWS V14.00,2013-11-07 05:21:00,
2013-11-07 00:27:00,59.6,57.9,30.05,SW,230,10.0,16.0,94,0.00,,---,0.00,VWS V14.00,2013-11-07 05:27:00,
2013-11-07 00:32:00,59.5,58.1,30.05,SW,214,7.0,15.0,95,0.00,,---,0.00,VWS V14.00,2013-11-07 05:32:00,
2013-11-07 00:37:00,59.5,58.1,30.05,South,182,6.0,15.0,95,0.00,,---,0.00,VWS V14.00,2013-11-07 05:37:00,
2013-11-07 00:42:00,59.6,58.2,30.05,SSW,204,5.0,15.0,95,0.00,,---,0.00,VWS V14.00,2013-11-07 05:42:00,
2013-11-07 00:47:00,59.7,58.3,30.05,SW,218,11.0,17.0,95,0.00,,---,0.00,VWS V14.00,2013-11-07 05:47:00,
2013-11-07 00:52:00,59.8,58.4,30.04,West,262,9.0,20.0,95,0.00,,---,0.00,VWS V14.00,2013-11-07 05:52:00,
2013-11-07 00:57:00,59.9,58.2,30.04,SSW,207,14.0,20.0,94,0.00,,---,0.00,VWS V14.00,2013-11-07 05:57:00,
2013-11-07 01:02:00,59.9,58.2,30.04,SSW,204,7.0,15.0,94,0.00,,---,0.00,VWS V14.00,2013-11-07 06:02:00,
2013-11-07 01:07:00,59.8,58.1,30.03,SSW,193,14.0,16.0,94,0.00,,---,0.00,VWS V14.00,2013-11-07 06:07:00,
2013-11-07 01:12:00,59.7,58.3,30.03,SW,219,10.0,16.0,95,0.00,,---,0.00,VWS V14.00,2013-11-07 06:12:00,
2013-11-07 01:18:00,59.6,58.2,30.03,SW,218,11.0,16.0,95,0.00,,---,0.00,VWS V14.00,2013-11-07 06:18:00,
2013-11-07 01:23:00,59.5,58.1,30.02,South,188,10.0,19.0,95,0.00,,---,0.00,VWS V14.00,2013-11-07 06:23:00,
2013-11-07 01:28:00,59.6,58.2,30.02,SW,220,13.0,19.0,95,0.00,,---,0.00,VWS V14.00,2013-11-07 06:28:00,
2013-11-07 01:33:00,59.6,58.2,30.02,SW,230,12.0,17.0,95,0.00,,---,0.00,VWS V14.00,2013-11-07 06:33:00,
2013-11-07 01:38:00,59.7,58.6,30.02,SSW,210,11.0,20.0,96,0.00,,---,0.00,VWS V14.00,2013-11-07 06:38:00,
2013-11-07 01:43:00,59.7,58.6,30.02,SSW,207,13.0,20.0,96,0.00,,---,0.00,VWS V14.00,2013-11-07 06:43:00,
2013-11-07 01:48:00,59.7,58.6,30.02,SW,218,7.0,20.0,96,0.00,,---,0.00,VWS V14.00,2013-11-07 06:48:00,
2013-11-07 01:53:00,59.7,58.6,30.01,SSW,210,12.0,20.0,96,0.00,,---,0.00,VWS V14.00,2013-11-07 06:53:00,
2013-11-07 01:58:00,59.7,58.6,30.01,SW,231,7.0,20.0,96,0.00,,---,0.00,VWS V14.00,2013-11-07 06:58:00,
2013-11-07 02:03:00,59.8,58.7,30.01,WSW,241,9.0,15.0,96,0.00,,---,0.00,VWS V14.00,2013-11-07 07:03:00,
2013-11-07 02:08:00,59.9,58.8,30.01,West,263,7.0,15.0,96,0.00,,---,0.00,VWS V14.00,2013-11-07 07:08:00,
2013-11-07 02:13:00,60.0,58.9,30.00,WSW,237,8.0,16.0,96,0.00,,---,0.00,VWS V14.00,2013-11-07 07:13:00,
2013-11-07 02:19:00,60.2,59.1,30.00,SW,220,13.0,16.0,96,0.00,,---,0.00,VWS V14.00,2013-11-07 07:19:00,
2013-11-07 02:24:00,60.3,59.2,30.00,SSW,202,7.0,16.0,96,0.00,,---,0.00,VWS V14.00,2013-11-07 07:24:00,
2013-11-07 02:29:00,60.4,59.3,29.99,SSW,198,6.0,19.0,96,0.00,,---,0.00,VWS V14.00,2013-11-07 07:29:00,
2013-11-07 02:34:00,60.2,59.1,29.99,SSW,199,7.0,16.0,96,0.00,,---,0.00,VWS V14.00,2013-11-07 07:34:00,
2013-11-07 02:39:00,59.9,58.8,29.99,SSW,213,9.0,16.0,96,0.00,,---,0.00,VWS V14.00,2013-11-07 07:39:00,
2013-11-07 02:44:00,59.8,58.7,29.99,WSW,245,6.0,16.0,96,0.00,,---,0.00,VWS V14.00,2013-11-07 07:44:00,
2013-11-07 02:49:00,59.8,58.7,29.99,SW,229,14.0,18.0,96,0.00,,---,0.00,VWS V14.00,2013-11-07 07:49:00,
2013-11-07 02:54:00,59.9,58.8,29.98,WSW,238,11.0,18.0,96,0.00,,---,0.00,VWS V14.00,2013-11-07 07:54:00,
2013-11-07 02:59:00,60.1,59.0,29.97,SW,214,4.0,18.0,96,0.00,,---,0.00,VWS V14.00,2013-11-07 07:59:00,
2013-11-07 03:04:00,60.1,59.0,29.97,SW,231,11.0,16.0,96,0.00,,---,0.00,VWS V14.00,2013-11-07 08:04:00,
2013-11-07 03:09:00,60.0,58.9,29.97,SSW,197,7.0,17.0,96,0.00,,---,0.00,VWS V14.00,2013-11-07 08:09:00,
2013-11-07 03:14:00,59.9,58.8,29.97,SW,231,9.0,17.0,96,0.00,,---,0.00,VWS V14.00,2013-11-07 08:14:00,
2013-11-07 03:19:00,59.8,58.7,29.97,SW,223,12.0,17.0,96,0.00,,---,0.00,VWS V14.00,2013-11-07 08:19:00,
2013-11-07 03:24:00,59.8,58.7,29.96,SSW,205,12.0,17.0,96,0.00,,---,0.00,VWS V14.00,2013-11-07 08:24:00,
2013-11-07 03:29:00,59.9,58.8,29.97,SW,227,10.0,11.0,96,0.00,,---,0.00,VWS V14.00,2013-11-07 08:29:00,
2013-11-07 03:35:00,59.8,58.7,29.96,SW,214,12.0,17.0,96,0.00,,---,0.00,VWS V14.00,2013-11-07 08:35:00,
2013-11-07 03:40:00,59.8,58.7,29.96,SW,231,6.0,17.0,96,0.00,,---,0.00,VWS V14.00,2013-11-07 08:40:00,
2013-11-07 03:45:00,60.0,59.2,29.96,SSW,200,9.0,18.0,97,0.00,,---,0.00,VWS V14.00,2013-11-07 08:45:00,
2013-11-07 03:50:00,60.1,59.2,29.95,SW,228,9.0,18.0,97,0.00,,---,0.00,VWS V14.00,2013-11-07 08:50:00,
2013-11-07 03:55:00,60.1,59.2,29.95,SSW,208,12.0,18.0,97,0.01,,---,0.00,VWS V14.00,2013-11-07 08:55:00,
2013-11-07 04:00:00,60.1,59.2,29.95,SW,225,11.0,12.0,97,0.01,,---,0.00,VWS V14.00,2013-11-07 09:00:00,
2013-11-07 04:05:00,60.2,59.3,29.95,SW,218,8.0,16.0,97,0.01,,---,0.00,VWS V14.00,2013-11-07 09:05:00,
2013-11-07 04:10:00,60.2,59.3,29.95,SW,214,10.0,16.0,97,0.01,,---,0.00,VWS V14.00,2013-11-07 09:10:00,
2013-11-07 04:15:00,60.2,59.3,29.95,West,261,7.0,17.0,97,0.00,,---,0.00,VWS V14.00,2013-11-07 09:15:00,
2013-11-07 04:20:00,60.1,59.0,29.94,WSW,247,7.0,17.0,96,0.00,,---,0.00,VWS V14.00,2013-11-07 09:20:00,
2013-11-07 04:25:00,59.9,58.8,29.94,WSW,248,11.0,17.0,96,0.00,,---,0.00,VWS V14.00,2013-11-07 09:25:00,
2013-11-07 04:30:00,59.7,58.6,29.94,SW,225,10.0,12.0,96,0.00,,---,0.00,VWS V14.00,2013-11-07 09:30:00,
2013-11-07 04:35:00,59.7,58.6,29.94,WSW,249,10.0,16.0,96,0.00,,---,0.00,VWS V14.00,2013-11-07 09:35:00,
2013-11-07 04:40:00,59.5,58.4,29.94,WSW,237,7.0,16.0,96,0.00,,---,0.00,VWS V14.00,2013-11-07 09:40:00,
2013-11-07 04:45:00,58.1,57.0,29.94,WSW,249,7.0,16.0,96,0.00,,---,0.00,VWS V14.00,2013-11-07 09:45:00,
2013-11-07 04:50:00,57.8,56.7,29.93,WSW,253,7.0,16.0,96,0.00,,---,0.00,VWS V14.00,2013-11-07 09:50:00,
2013-11-07 04:55:00,57.6,56.5,29.93,WSW,247,5.0,16.0,96,0.00,,---,0.00,VWS V14.00,2013-11-07 09:55:00,
2013-11-07 05:01:00,57.4,56.3,29.93,WSW,243,6.0,7.0,96,0.00,,---,0.00,VWS V14.00,2013-11-07 10:01:00,
2013-11-07 05:06:00,57.6,56.8,29.93,WSW,240,6.0,9.0,97,0.00,,---,0.00,VWS V14.00,2013-11-07 10:06:00,
2013-11-07 05:11:00,58.0,57.2,29.92,WSW,257,6.0,10.0,97,0.00,,---,0.00,VWS V14.00,2013-11-07 10:11:00,
2013-11-07 05:16:00,58.4,57.6,29.92,SW,224,5.0,12.0,97,0.00,,---,0.00,VWS V14.00,2013-11-07 10:16:00,
2013-11-07 05:21:00,58.8,58.0,29.92,SSW,199,7.0,14.0,97,0.00,,---,0.00,VWS V14.00,2013-11-07 10:21:00,
2013-11-07 05:26:00,58.7,57.8,29.92,WSW,244,8.0,14.0,97,0.00,,---,0.00,VWS V14.00,2013-11-07 10:26:00,
2013-11-07 05:31:00,58.9,58.0,29.91,SW,234,4.0,11.0,97,0.00,,---,0.01,VWS V14.00,2013-11-07 10:31:00,
2013-11-07 05:36:00,59.0,58.2,29.90,West,261,9.0,14.0,97,0.00,,---,0.01,VWS V14.00,2013-11-07 10:36:00,
2013-11-07 05:41:00,59.2,58.3,29.90,WSW,249,9.0,15.0,97,0.00,,---,0.01,VWS V14.00,2013-11-07 10:41:00,
2013-11-07 05:46:00,59.3,58.5,29.90,WSW,245,12.0,15.0,97,0.00,,---,0.01,VWS V14.00,2013-11-07 10:46:00,
2013-11-07 05:51:00,59.5,58.7,29.90,SW,222,6.0,15.0,97,0.00,,---,0.01,VWS V14.00,2013-11-07 10:51:00,
2013-11-07 05:56:00,59.5,58.7,29.90,SW,222,10.0,15.0,97,0.00,,---,0.01,VWS V14.00,2013-11-07 10:56:00,
2013-11-07 06:01:00,59.6,58.8,29.90,SW,218,6.0,10.0,97,0.00,,---,0.01,VWS V14.00,2013-11-07 11:01:00,
2013-11-07 06:06:00,59.6,58.8,29.90,WSW,239,5.0,12.0,97,0.00,,---,0.01,VWS V14.00,2013-11-07 11:06:00,
2013-11-07 06:11:00,59.5,58.7,29.90,SW,216,6.0,12.0,97,0.00,,---,0.01,VWS V14.00,2013-11-07 11:11:00,
2013-11-07 06:16:00,59.4,58.5,29.90,SW,214,6.0,12.0,97,0.00,,---,0.01,VWS V14.00,2013-11-07 11:16:00,
2013-11-07 06:21:00,59.2,58.3,29.90,SW,225,10.0,12.0,97,0.00,,---,0.01,VWS V14.00,2013-11-07 11:21:00,
2013-11-07 06:27:00,59.1,58.2,29.89,SW,225,7.0,12.0,97,0.00,,---,0.01,VWS V14.00,2013-11-07 11:27:00,
2013-11-07 06:32:00,59.1,58.2,29.88,WSW,255,5.0,10.0,97,0.00,,---,0.01,VWS V14.00,2013-11-07 11:32:00,
2013-11-07 06:34:00,59.1,58.2,29.88,West,259,9.0,10.0,97,0.00,,---,0.01,VWS V14.00,2013-11-07 11:34:00,
2013-11-07 06:39:00,59.1,58.2,29.88,SW,219,5.0,13.0,97,0.00,,---,0.01,VWS V14.00,2013-11-07 11:39:00,
2013-11-07 06:44:00,59.1,58.2,29.88,WSW,246,8.0,13.0,97,0.00,,---,0.01,VWS V14.00,2013-11-07 11:44:00,
2013-11-07 06:49:00,59.3,58.5,29.88,WSW,239,4.0,16.0,97,0.00,,---,0.01,VWS V14.00,2013-11-07 11:49:00,
2013-11-07 06:54:00,59.4,58.5,29.88,WSW,249,4.0,16.0,97,0.00,,---,0.01,VWS V14.00,2013-11-07 11:54:00,
2013-11-07 06:59:00,59.3,58.5,29.88,WSW,250,8.0,16.0,97,0.00,,---,0.01,VWS V14.00,2013-11-07 11:59:00,
2013-11-07 07:04:00,59.1,58.2,29.88,SW,222,6.0,12.0,97,0.00,,---,0.01,VWS V14.00,2013-11-07 12:04:00,
2013-11-07 07:10:00,59.1,58.2,29.88,WSW,245,10.0,13.0,97,0.00,,---,0.01,VWS V14.00,2013-11-07 12:10:00,
2013-11-07 07:15:00,58.8,58.0,29.88,WSW,256,9.0,13.0,97,0.00,,---,0.01,VWS V14.00,2013-11-07 12:15:00,
2013-11-07 07:20:00,58.6,57.8,29.88,SW,226,13.0,13.0,97,0.00,,---,0.01,VWS V14.00,2013-11-07 12:20:00,
2013-11-07 07:25:00,58.9,58.0,29.88,SW,214,6.0,13.0,97,0.00,,---,0.01,VWS V14.00,2013-11-07 12:25:00,
2013-11-07 07:30:00,58.8,58.0,29.88,West,260,6.0,9.0,97,0.00,,---,0.01,VWS V14.00,2013-11-07 12:30:00,
2013-11-07 07:35:00,58.8,58.0,29.88,WSW,241,7.0,14.0,97,0.00,,---,0.01,VWS V14.00,2013-11-07 12:35:00,
2013-11-07 07:40:00,59.0,58.2,29.88,SW,220,6.0,14.0,97,0.00,,---,0.01,VWS V14.00,2013-11-07 12:40:00,
2013-11-07 07:45:00,58.9,58.0,29.88,WSW,251,4.0,14.0,97,0.00,,---,0.01,VWS V14.00,2013-11-07 12:45:00,
2013-11-07 07:50:00,58.8,58.0,29.88,WSW,250,9.0,15.0,97,0.00,,---,0.01,VWS V14.00,2013-11-07 12:50:00,
2013-11-07 07:55:00,58.1,57.3,29.89,WSW,253,11.0,15.0,97,0.00,,---,0.01,VWS V14.00,2013-11-07 12:55:00,
2013-11-07 08:00:00,57.4,56.6,29.89,WSW,255,6.0,7.0,97,0.00,,---,0.01,VWS V14.00,2013-11-07 13:00:00,
2013-11-07 08:05:00,57.5,56.7,29.89,SW,234,5.0,10.0,97,0.00,,---,0.01,VWS V14.00,2013-11-07 13:05:00,
2013-11-07 08:10:00,57.5,56.7,29.89,WSW,239,5.0,10.0,97,0.00,,---,0.01,VWS V14.00,2013-11-07 13:10:00,
2013-11-07 08:15:00,57.6,56.8,29.89,WSW,254,6.0,12.0,97,0.01,,---,0.01,VWS V14.00,2013-11-07 13:15:00,
2013-11-07 08:20:00,57.5,56.7,29.88,SW,231,7.0,12.0,97,0.01,,---,0.01,VWS V14.00,2013-11-07 13:20:00,
2013-11-07 08:26:00,57.5,56.7,29.89,WSW,239,6.0,12.0,97,0.02,,---,0.01,VWS V14.00,2013-11-07 13:26:00,
2013-11-07 08:31:00,57.6,56.8,29.88,WSW,254,9.0,11.0,97,0.01,,---,0.01,VWS V14.00,2013-11-07 13:31:00,
2013-11-07 08:36:00,57.6,56.8,29.88,SW,234,11.0,12.0,97,0.01,,---,0.01,VWS V14.00,2013-11-07 13:36:00,
2013-11-07 08:41:00,57.4,56.6,29.87,West,261,5.0,12.0,97,0.00,,---,0.01,VWS V14.00,2013-11-07 13:41:00,
2013-11-07 08:46:00,57.3,56.5,29.87,WSW,249,7.0,12.0,97,0.00,,---,0.01,VWS V14.00,2013-11-07 13:46:00,
2013-11-07 08:51:00,57.7,56.9,29.87,WSW,258,6.0,12.0,97,0.00,,---,0.01,VWS V14.00,2013-11-07 13:51:00,
2013-11-07 08:57:00,58.1,57.3,29.87,WSW,240,9.0,12.0,97,0.00,,---,0.01,VWS V14.00,2013-11-07 13:57:00,
2013-11-07 09:02:00,58.1,57.3,29.87,WSW,240,5.0,11.0,97,0.00,,---,0.01,VWS V14.00,2013-11-07 14:02:00,
2013-11-07 09:07:00,57.9,57.1,29.86,WSW,246,9.0,12.0,97,0.00,,---,0.01,VWS V14.00,2013-11-07 14:07:00,
2013-11-07 09:12:00,58.0,57.2,29.87,WSW,257,6.0,12.0,97,0.00,,---,0.01,VWS V14.00,2013-11-07 14:12:00,
2013-11-07 09:17:00,58.3,57.7,29.87,WSW,247,7.0,13.0,98,0.00,,---,0.01,VWS V14.00,2013-11-07 14:17:00,
2013-11-07 09:22:00,58.9,58.3,29.86,SW,219,10.0,16.0,98,0.00,,---,0.01,VWS V14.00,2013-11-07 14:22:00,
2013-11-07 09:27:00,59.0,58.4,29.86,WSW,258,9.0,16.0,98,0.00,,---,0.01,VWS V14.00,2013-11-07 14:27:00,
2013-11-07 09:32:00,59.2,58.3,29.86,WSW,256,9.0,11.0,97,0.00,,---,0.01,VWS V14.00,2013-11-07 14:32:00,
2013-11-07 09:37:00,59.4,58.5,29.85,West,272,9.0,15.0,97,0.00,,---,0.01,VWS V14.00,2013-11-07 14:37:00,
2013-11-07 09:42:00,59.3,58.5,29.85,SW,235,12.0,15.0,97,0.01,,---,0.01,VWS V14.00,2013-11-07 14:42:00,
2013-11-07 09:48:00,58.5,57.7,29.85,WSW,256,11.0,15.0,97,0.01,,---,0.01,VWS V14.00,2013-11-07 14:48:00,
2013-11-07 09:54:00,58.0,57.2,29.85,WSW,245,6.0,15.0,97,0.00,,---,0.01,VWS V14.00,2013-11-07 14:54:00,
2013-11-07 09:59:00,58.2,57.4,29.85,WSW,251,10.0,15.0,97,0.00,,---,0.01,VWS V14.00,2013-11-07 14:59:00,
2013-11-07 10:04:00,58.0,57.2,29.85,WSW,250,11.0,12.0,97,0.00,,---,0.01,VWS V14.00,2013-11-07 15:04:00,
2013-11-07 10:09:00,58.2,57.4,29.85,West,262,7.0,12.0,97,0.00,,---,0.01,VWS V14.00,2013-11-07 15:09:00,
2013-11-07 10:14:00,58.4,57.6,29.85,West,261,8.0,12.0,97,0.00,,---,0.02,VWS V14.00,2013-11-07 15:14:00,
2013-11-07 10:19:00,58.4,57.6,29.84,WSW,254,7.0,12.0,97,0.00,,---,0.02,VWS V14.00,2013-11-07 15:19:00,
2013-11-07 10:24:00,58.3,57.5,29.85,WSW,258,7.0,12.0,97,0.00,,---,0.02,VWS V14.00,2013-11-07 15:24:00,
2013-11-07 10:29:00,58.7,57.8,29.84,West,261,10.0,12.0,97,0.00,,---,0.02,VWS V14.00,2013-11-07 15:29:00,
2013-11-07 10:34:00,58.9,58.3,29.84,West,266,7.0,10.0,98,0.00,,---,0.02,VWS V14.00,2013-11-07 15:34:00,
2013-11-07 10:39:00,59.0,58.2,29.84,WSW,250,5.0,10.0,97,0.00,,---,0.02,VWS V14.00,2013-11-07 15:39:00,
2013-11-07 10:44:00,59.3,58.5,29.83,West,267,6.0,10.0,97,0.00,,---,0.02,VWS V14.00,2013-11-07 15:44:00,
2013-11-07 10:50:00,59.9,59.0,29.83,WSW,257,6.0,13.0,97,0.00,,---,0.02,VWS V14.00,2013-11-07 15:50:00,
2013-11-07 10:55:00,60.0,59.2,29.83,WSW,254,6.0,13.0,97,0.00,,---,0.02,VWS V14.00,2013-11-07 15:55:00,
2013-11-07 11:00:00,60.0,59.2,29.83,WSW,252,8.0,8.0,97,0.00,,---,0.02,VWS V14.00,2013-11-07 16:00:00,
2013-11-07 11:05:00,60.1,59.2,29.82,WSW,249,6.0,12.0,97,0.00,,---,0.02,VWS V14.00,2013-11-07 16:05:00,
2013-11-07 11:10:00,60.1,59.2,29.82,WSW,256,10.0,12.0,97,0.00,,---,0.02,VWS V14.00,2013-11-07 16:10:00,
2013-11-07 11:15:00,60.2,59.3,29.81,WSW,252,10.0,12.0,97,0.00,,---,0.02,VWS V14.00,2013-11-07 16:15:00,
2013-11-07 11:20:00,60.2,59.1,29.81,West,265,6.0,12.0,96,0.00,,---,0.02,VWS V14.00,2013-11-07 16:20:00,
2013-11-07 11:25:00,60.3,59.2,29.81,WSW,254,8.0,12.0,96,0.00,,---,0.02,VWS V14.00,2013-11-07 16:25:00,
2013-11-07 11:30:00,60.2,59.1,29.81,West,262,9.0,12.0,96,0.00,,---,0.02,VWS V14.00,2013-11-07 16:30:00,
2013-11-07 11:35:00,60.2,59.1,29.80,WSW,256,7.0,12.0,96,0.00,,---,0.02,VWS V14.00,2013-11-07 16:35:00,
2013-11-07 11:41:00,60.0,58.9,29.80,WSW,253,9.0,12.0,96,0.00,,---,0.02,VWS V14.00,2013-11-07 16:41:00,
2013-11-07 11:46:00,59.8,58.7,29.80,WSW,252,5.0,12.0,96,0.00,,---,0.02,VWS V14.00,2013-11-07 16:46:00,
2013-11-07 11:51:00,59.4,58.0,29.79,WSW,252,7.0,12.0,95,0.00,,---,0.02,VWS V14.00,2013-11-07 16:51:00,
2013-11-07 11:56:00,58.9,57.5,29.79,WSW,254,7.0,12.0,95,0.00,,---,0.02,VWS V14.00,2013-11-07 16:56:00,
2013-11-07 12:01:00,58.6,57.5,29.79,WSW,243,5.0,7.0,96,0.01,,---,0.02,VWS V14.00,2013-11-07 17:01:00,
2013-11-07 12:06:00,58.7,57.6,29.78,WSW,249,6.0,9.0,96,0.01,,---,0.02,VWS V14.00,2013-11-07 17:06:00,
2013-11-07 12:11:00,58.5,57.4,29.78,WSW,249,4.0,9.0,96,0.01,,---,0.02,VWS V14.00,2013-11-07 17:11:00,
2013-11-07 12:16:00,58.1,57.0,29.77,WSW,247,4.0,9.0,96,0.00,,---,0.02,VWS V14.00,2013-11-07 17:16:00,
2013-11-07 12:21:00,57.9,56.8,29.77,WSW,237,3.0,9.0,96,0.00,,---,0.02,VWS V14.00,2013-11-07 17:21:00,
2013-11-07 12:27:00,58.1,57.0,29.78,SW,232,6.0,9.0,96,0.00,,---,0.02,VWS V14.00,2013-11-07 17:27:00,
2013-11-07 12:32:00,58.3,57.5,29.77,WSW,244,3.0,7.0,97,0.00,,---,0.02,VWS V14.00,2013-11-07 17:32:00,
2013-11-07 12:38:00,58.4,57.6,29.77,WSW,247,5.0,9.0,97,0.00,,---,0.02,VWS V14.00,2013-11-07 17:38:00,
2013-11-07 12:43:00,58.2,57.4,29.76,WSW,239,5.0,9.0,97,0.00,,---,0.02,VWS V14.00,2013-11-07 17:43:00,
2013-11-07 12:48:00,59.0,58.2,29.76,SW,233,3.0,9.0,97,0.00,,---,0.02,VWS V14.00,2013-11-07 17:48:00,
2013-11-07 12:53:00,58.9,58.0,29.76,WSW,252,5.0,9.0,97,0.00,,---,0.02,VWS V14.00,2013-11-07 17:53:00,
2013-11-07 12:59:00,58.3,57.2,29.76,WSW,243,6.0,9.0,96,0.00,,---,0.02,VWS V14.00,2013-11-07 17:59:00,
2013-11-07 13:02:00,58.2,57.4,29.76,WSW,256,5.0,7.0,97,0.00,,---,0.02,VWS V14.00,2013-11-07 18:02:00,
2013-11-07 13:07:00,58.1,57.3,29.76,WSW,256,5.0,7.0,97,0.00,,---,0.02,VWS V14.00,2013-11-07 18:07:00,
2013-11-07 13:12:00,58.0,57.2,29.76,WSW,257,3.0,7.0,97,0.00,,---,0.02,VWS V14.00,2013-11-07 18:12:00,
2013-11-07 13:17:00,58.2,57.4,29.77,West,262,8.0,8.0,97,0.00,,---,0.02,VWS V14.00,2013-11-07 18:17:00,
2013-11-07 13:22:00,58.2,57.4,29.76,WSW,258,5.0,9.0,97,0.00,,---,0.02,VWS V14.00,2013-11-07 18:22:00,
2013-11-07 13:27:00,58.3,57.5,29.76,West,275,4.0,9.0,97,0.00,,---,0.02,VWS V14.00,2013-11-07 18:27:00,
2013-11-07 13:32:00,58.5,57.7,29.76,West,262,4.0,6.0,97,0.00,,---,0.02,VWS V14.00,2013-11-07 18:32:00,
2013-11-07 13:37:00,58.7,57.8,29.76,West,272,5.0,6.0,97,0.00,,---,0.02,VWS V14.00,2013-11-07 18:37:00,
2013-11-07 13:43:00,58.7,57.8,29.76,WNW,292,10.0,12.0,97,0.00,,---,0.02,VWS V14.00,2013-11-07 18:43:00,
2013-11-07 13:48:00,58.0,56.9,29.76,WNW,286,9.0,13.0,96,0.00,,---,0.02,VWS V14.00,2013-11-07 18:48:00,
2013-11-07 13:53:00,58.4,57.6,29.76,WNW,299,12.0,14.0,97,0.00,,---,0.02,VWS V14.00,2013-11-07 18:53:00,
2013-11-07 13:58:00,58.6,57.5,29.77,WNW,299,12.0,15.0,96,0.00,,---,0.02,VWS V14.00,2013-11-07 18:58:00,
2013-11-07 14:03:00,58.7,57.3,29.77,WNW,301,14.0,16.0,95,0.00,,---,0.02,VWS V14.00,2013-11-07 19:03:00,
2013-11-07 14:08:00,58.5,56.5,29.77,NW,308,14.0,16.0,93,0.00,,---,0.02,VWS V14.00,2013-11-07 19:08:00,
2013-11-07 14:13:00,58.6,56.3,29.77,NW,318,14.0,19.0,92,0.00,,---,0.02,VWS V14.00,2013-11-07 19:13:00,
2013-11-07 14:19:00,58.6,56.3,29.77,WNW,295,12.0,19.0,92,0.00,,---,0.02,VWS V14.00,2013-11-07 19:19:00,
2013-11-07 14:24:00,58.5,56.2,29.77,NW,309,14.0,19.0,92,0.00,,---,0.02,VWS V14.00,2013-11-07 19:24:00,
2013-11-07 14:29:00,58.4,56.1,29.77,NW,308,12.0,19.0,92,0.00,,---,0.02,VWS V14.00,2013-11-07 19:29:00,
2013-11-07 14:34:00,58.4,56.1,29.77,NW,314,18.0,21.0,92,0.00,,---,0.02,VWS V14.00,2013-11-07 19:34:00,
2013-11-07 14:39:00,58.4,55.8,29.77,NW,320,17.0,22.0,91,0.00,,---,0.02,VWS V14.00,2013-11-07 19:39:00,
2013-11-07 14:44:00,58.3,55.1,29.78,NW,320,21.0,26.0,89,0.00,,---,0.02,VWS V14.00,2013-11-07 19:44:00,
2013-11-07 14:49:00,57.8,54.3,29.78,NW,312,18.0,26.0,88,0.00,,---,0.02,VWS V14.00,2013-11-07 19:49:00,
2013-11-07 14:54:00,56.8,53.6,29.78,NW,323,18.0,26.0,89,0.00,,---,0.02,VWS V14.00,2013-11-07 19:54:00,
2013-11-07 14:59:00,56.7,53.5,29.78,NW,322,19.0,26.0,89,0.00,,---,0.02,VWS V14.00,2013-11-07 19:59:00,
2013-11-07 15:04:00,56.6,53.4,29.78,NW,309,16.0,20.0,89,0.00,,---,0.02,VWS V14.00,2013-11-07 20:04:00,
2013-11-07 15:09:00,56.2,53.3,29.78,NW,308,12.0,20.0,90,0.00,,---,0.02,VWS V14.00,2013-11-07 20:09:00,
2013-11-07 15:14:00,56.3,53.4,29.79,NW,325,16.0,20.0,90,0.00,,---,0.02,VWS V14.00,2013-11-07 20:14:00,
2013-11-07 15:19:00,56.3,53.4,29.78,NNW,330,15.0,20.0,90,0.00,,---,0.02,VWS V14.00,2013-11-07 20:19:00,
2013-11-07 15:24:00,56.2,53.6,29.78,NNW,337,13.0,20.0,91,0.00,,---,0.02,VWS V14.00,2013-11-07 20:24:00,
2013-11-07 15:29:00,56.1,53.8,29.78,NNW,333,9.0,20.0,92,0.00,,---,0.02,VWS V14.00,2013-11-07 20:29:00,
2013-11-07 15:34:00,56.0,53.7,29.78,NNW,333,8.0,12.0,92,0.00,,---,0.02,VWS V14.00,2013-11-07 20:34:00,
2013-11-07 15:39:00,56.0,53.7,29.78,NNW,330,9.0,12.0,92,0.00,,---,0.02,VWS V14.00,2013-11-07 20:39:00,
2013-11-07 15:45:00,55.9,53.6,29.78,NNW,328,7.0,12.0,92,0.00,,---,0.02,VWS V14.00,2013-11-07 20:45:00,
2013-11-07 15:50:00,55.9,53.6,29.79,NW,326,7.0,12.0,92,0.00,,---,0.02,VWS V14.00,2013-11-07 20:50:00,
2013-11-07 15:55:00,55.8,53.5,29.78,NNW,332,7.0,12.0,92,0.00,,---,0.02,VWS V14.00,2013-11-07 20:55:00,
2013-11-07 16:00:00,55.8,53.8,29.79,NNW,327,7.0,9.0,93,0.00,,---,0.02,VWS V14.00,2013-11-07 21:00:00,
2013-11-07 16:05:00,55.7,53.7,29.79,NNW,328,9.0,11.0,93,0.00,,---,0.02,VWS V14.00,2013-11-07 21:05:00,
2013-11-07 16:10:00,55.8,53.5,29.79,NW,316,6.0,11.0,92,0.00,,---,0.02,VWS V14.00,2013-11-07 21:10:00,
2013-11-07 16:15:00,55.8,53.8,29.79,NW,325,9.0,12.0,93,0.00,,---,0.02,VWS V14.00,2013-11-07 21:15:00,
2013-11-07 16:20:00,55.8,53.5,29.79,NW,315,10.0,14.0,92,0.00,,---,0.02,VWS V14.00,2013-11-07 21:20:00,
2013-11-07 16:25:00,55.8,53.2,29.80,NW,322,12.0,14.0,91,0.00,,---,0.02,VWS V14.00,2013-11-07 21:25:00,
2013-11-07 16:30:00,55.9,52.7,29.80,NW,324,16.0,17.0,89,0.00,,---,0.02,VWS V14.00,2013-11-07 21:30:00,
2013-11-07 16:35:00,55.9,51.8,29.80,NW,316,13.0,20.0,86,0.00,,---,0.02,VWS V14.00,2013-11-07 21:35:00,
2013-11-07 16:40:00,55.8,51.4,29.80,NNW,327,17.0,21.0,85,0.00,,---,0.02,VWS V14.00,2013-11-07 21:40:00,
2013-11-07 16:45:00,55.6,50.8,29.81,NW,324,18.0,21.0,84,0.00,,---,0.02,VWS V14.00,2013-11-07 21:45:00,
2013-11-07 16:50:00,55.6,51.2,29.80,NW,318,14.0,21.0,85,0.00,,---,0.02,VWS V14.00,2013-11-07 21:50:00,
2013-11-07 16:56:00,55.4,50.7,29.81,NW,326,20.0,22.0,84,0.00,,---,0.02,VWS V14.00,2013-11-07 21:56:00,
2013-11-07 17:01:00,55.3,50.9,29.80,NW,312,17.0,18.0,85,0.00,,---,0.02,VWS V14.00,2013-11-07 22:01:00,
2013-11-07 17:06:00,55.1,50.7,29.81,NW,308,20.0,20.0,85,0.00,,---,0.02,VWS V14.00,2013-11-07 22:06:00,
2013-11-07 17:11:00,55.0,50.9,29.81,NW,324,18.0,25.0,86,0.00,,---,0.02,VWS V14.00,2013-11-07 22:11:00,
2013-11-07 17:16:00,54.9,50.5,29.81,NNW,331,14.0,25.0,85,0.00,,---,0.02,VWS V14.00,2013-11-07 22:16:00,
2013-11-07 17:21:00,54.7,50.6,29.82,NW,326,16.0,25.0,86,0.00,,---,0.02,VWS V14.00,2013-11-07 22:21:00,
2013-11-07 17:27:00,54.5,50.4,29.83,NNW,335,19.0,25.0,86,0.00,,---,0.02,VWS V14.00,2013-11-07 22:27:00,
2013-11-07 17:32:00,54.0,49.9,29.83,NNW,346,18.0,24.0,86,0.00,,---,0.02,VWS V14.00,2013-11-07 22:32:00,
2013-11-07 17:37:00,53.3,48.9,29.84,North,350,22.0,26.0,85,0.00,,---,0.02,VWS V14.00,2013-11-07 22:37:00,
2013-11-07 17:42:00,52.5,48.4,29.85,North,5,22.0,26.0,86,0.00,,---,0.02,VWS V14.00,2013-11-07 22:42:00,
2013-11-07 17:47:00,52.1,48.0,29.85,North,360,18.0,26.0,86,0.00,,---,0.02,VWS V14.00,2013-11-07 22:47:00,
2013-11-07 17:53:00,51.5,47.5,29.85,North,5,15.0,26.0,86,0.00,,---,0.02,VWS V14.00,2013-11-07 22:53:00,
2013-11-07 17:58:00,51.0,46.7,29.85,North,350,20.0,26.0,85,0.00,,---,0.02,VWS V14.00,2013-11-07 22:58:00,
2013-11-07 18:03:00,50.7,46.0,29.86,North,360,20.0,23.0,84,0.00,,---,0.02,VWS V14.00,2013-11-07 23:03:00,
2013-11-07 18:08:00,50.4,45.4,29.86,North,360,20.0,24.0,83,0.00,,---,0.02,VWS V14.00,2013-11-07 23:08:00,
2013-11-07 18:13:00,50.2,44.9,29.86,North,8,19.0,24.0,82,0.00,,---,0.02,VWS V14.00,2013-11-07 23:13:00,
2013-11-07 18:18:00,50.0,44.4,29.87,North,360,19.0,24.0,81,0.00,,---,0.02,VWS V14.00,2013-11-07 23:18:00,
2013-11-07 18:23:00,49.9,44.6,29.87,North,360,19.0,24.0,82,0.00,,---,0.02,VWS V14.00,2013-11-07 23:23:00,
2013-11-07 18:28:00,49.6,44.7,29.87,North,6,19.0,24.0,83,0.00,,---,0.02,VWS V14.00,2013-11-07 23:28:00,
2013-11-07 18:33:00,49.4,44.5,29.88,North,6,13.0,19.0,83,0.00,,---,0.02,VWS V14.00,2013-11-07 23:33:00,
2013-11-07 18:38:00,49.3,44.4,29.88,North,355,17.0,20.0,83,0.00,,---,0.02,VWS V14.00,2013-11-07 23:38:00,
2013-11-07 18:44:00,49.2,44.3,29.88,North,350,14.0,20.0,83,0.00,,---,0.02,VWS V14.00,2013-11-07 23:44:00,
2013-11-07 18:49:00,49.1,44.5,29.88,North,360,17.0,20.0,84,0.00,,---,0.02,VWS V14.00,2013-11-07 23:49:00,
2013-11-07 18:54:00,49.1,43.8,29.89,North,9,18.0,20.0,82,0.00,,---,0.02,VWS V14.00,2013-11-07 23:54:00,
2013-11-07 18:59:00,48.9,43.7,29.88,NNW,344,17.0,20.0,82,0.00,,---,0.02,VWS V14.00,2013-11-07 23:59:00,
2013-11-07 19:04:00,48.7,43.1,29.89,North,350,15.0,16.0,81,0.00,,---,0.02,VWS V14.00,2013-11-08 00:04:00,
2013-11-07 19:09:00,48.6,42.7,29.89,NNW,342,15.0,18.0,80,0.00,,---,0.02,VWS V14.00,2013-11-08 00:09:00,
2013-11-07 19:14:00,48.3,43.1,29.90,NNW,337,13.0,18.0,82,0.00,,---,0.02,VWS V14.00,2013-11-08 00:14:00,
2013-11-07 19:20:00,48.3,43.1,29.90,NNW,343,14.0,18.0,82,0.00,,---,0.02,VWS V14.00,2013-11-08 00:20:00,
2013-11-07 19:25:00,48.1,42.5,29.90,NNW,339,14.0,18.0,81,0.00,,---,0.02,VWS V14.00,2013-11-08 00:25:00,
2013-11-07 19:30:00,48.1,42.2,29.91,NW,323,15.0,15.0,80,0.00,,---,0.02,VWS V14.00,2013-11-08 00:30:00,
2013-11-07 19:36:00,48.0,42.1,29.91,NNW,343,12.0,15.0,80,0.00,,---,0.02,VWS V14.00,2013-11-08 00:36:00,
2013-11-07 19:41:00,47.8,41.9,29.91,NNW,343,14.0,17.0,80,0.00,,---,0.02,VWS V14.00,2013-11-08 00:41:00,
2013-11-07 19:46:00,47.9,42.4,29.91,North,350,15.0,17.0,81,0.00,,---,0.02,VWS V14.00,2013-11-08 00:46:00,
2013-11-07 19:51:00,47.8,42.3,29.91,North,350,12.0,18.0,81,0.00,,---,0.02,VWS V14.00,2013-11-08 00:51:00,
2013-11-07 19:56:00,47.7,41.8,29.91,NNW,344,13.0,18.0,80,0.00,,---,0.02,VWS V14.00,2013-11-08 00:56:00,
2013-11-07 20:01:00,47.7,41.8,29.92,NNW,336,11.0,13.0,80,0.00,,---,0.02,VWS V14.00,2013-11-08 01:01:00,
2013-11-07 20:07:00,47.5,42.3,29.92,NNW,344,11.0,14.0,82,0.00,,---,0.02,VWS V14.00,2013-11-08 01:07:00,
2013-11-07 20:12:00,47.4,41.9,29.92,NW,324,12.0,16.0,81,0.00,,---,0.02,VWS V14.00,2013-11-08 01:12:00,
2013-11-07 20:17:00,47.4,41.9,29.92,NNW,339,11.0,16.0,81,0.00,,---,0.02,VWS V14.00,2013-11-08 01:17:00,
2013-11-07 20:22:00,47.3,41.8,29.93,NNW,343,11.0,16.0,81,0.00,,---,0.02,VWS V14.00,2013-11-08 01:22:00,
2013-11-07 20:27:00,47.2,41.7,29.93,NNW,337,10.0,16.0,81,0.00,,---,0.02,VWS V14.00,2013-11-08 01:27:00,
2013-11-07 20:32:00,47.0,41.2,29.93,NNW,327,11.0,14.0,80,0.00,,---,0.02,VWS V14.00,2013-11-08 01:32:00,
2013-11-07 20:37:00,46.8,41.3,29.94,NNW,337,10.0,14.0,81,0.00,,---,0.02,VWS V14.00,2013-11-08 01:37:00,
2013-11-07 20:42:00,46.7,41.2,29.94,NNW,346,10.0,14.0,81,0.00,,---,0.02,VWS V14.00,2013-11-08 01:42:00,
2013-11-07 20:47:00,46.6,41.4,29.93,North,350,10.0,14.0,82,0.00,,---,0.02,VWS V14.00,2013-11-08 01:47:00,
2013-11-07 20:52:00,46.6,41.4,29.94,NNW,336,11.0,14.0,82,0.00,,---,0.02,VWS V14.00,2013-11-08 01:52:00,
2013-11-07 20:57:00,46.6,41.7,29.94,North,355,8.0,14.0,83,0.00,,---,0.02,VWS V14.00,2013-11-08 01:57:00,
2013-11-07 21:03:00,46.4,41.2,29.94,NNW,334,10.0,12.0,82,0.00,,---,0.02,VWS V14.00,2013-11-08 02:03:00,
2013-11-07 21:08:00,46.3,41.4,29.94,NNW,340,9.0,12.0,83,0.00,,---,0.02,VWS V14.00,2013-11-08 02:08:00,
2013-11-07 21:13:00,46.2,41.3,29.94,NNW,343,10.0,12.0,83,0.00,,---,0.02,VWS V14.00,2013-11-08 02:13:00,
2013-11-07 21:18:00,46.0,41.1,29.95,NNW,343,9.0,12.0,83,0.00,,---,0.02,VWS V14.00,2013-11-08 02:18:00,
2013-11-07 21:23:00,45.9,41.0,29.94,NNW,343,11.0,12.0,83,0.00,,---,0.02,VWS V14.00,2013-11-08 02:23:00,
2013-11-07 21:28:00,45.8,41.2,29.94,North,350,10.0,12.0,84,0.00,,---,0.02,VWS V14.00,2013-11-08 02:28:00,
2013-11-07 21:33:00,45.9,40.7,29.95,NNW,333,11.0,14.0,82,0.00,,---,0.02,VWS V14.00,2013-11-08 02:33:00,
2013-11-07 21:38:00,45.8,40.6,29.95,NNW,334,11.0,14.0,82,0.00,,---,0.02,VWS V14.00,2013-11-08 02:38:00,
2013-11-07 21:43:00,45.6,40.7,29.95,NNW,335,9.0,14.0,83,0.00,,---,0.02,VWS V14.00,2013-11-08 02:43:00,
2013-11-07 21:49:00,45.5,40.0,29.95,NNW,339,9.0,14.0,81,0.00,,---,0.02,VWS V14.00,2013-11-08 02:49:00,
2013-11-07 21:54:00,45.4,40.2,29.95,NNW,327,6.0,14.0,82,0.00,,---,0.02,VWS V14.00,2013-11-08 02:54:00,
2013-11-07 21:59:00,45.5,40.0,29.95,NNW,336,9.0,14.0,81,0.00,,---,0.02,VWS V14.00,2013-11-08 02:59:00,
2013-11-07 22:04:00,45.7,40.5,29.95,North,350,10.0,12.0,82,0.00,,---,0.02,VWS V14.00,2013-11-08 03:04:00,
2013-11-07 22:09:00,45.6,39.8,29.95,NNW,335,9.0,12.0,80,0.00,,---,0.02,VWS V14.00,2013-11-08 03:09:00,
2013-11-07 22:14:00,45.6,39.5,29.95,NNW,334,9.0,13.0,79,0.00,,---,0.02,VWS V14.00,2013-11-08 03:14:00,
2013-11-07 22:19:00,45.8,39.7,29.95,NNW,339,11.0,13.0,79,0.00,,---,0.02,VWS V14.00,2013-11-08 03:19:00,
2013-11-07 22:24:00,45.8,39.7,29.95,NNW,332,7.0,13.0,79,0.00,,---,0.02,VWS V14.00,2013-11-08 03:24:00,
2013-11-07 22:29:00,45.8,39.3,29.95,NNW,338,11.0,13.0,78,0.00,,---,0.02,VWS V14.00,2013-11-08 03:29:00,
2013-11-07 22:34:00,45.5,39.0,29.95,NNW,338,8.0,11.0,78,0.00,,---,0.02,VWS V14.00,2013-11-08 03:34:00,
2013-11-07 22:39:00,45.4,39.3,29.94,NNW,332,8.0,12.0,79,0.00,,---,0.02,VWS V14.00,2013-11-08 03:39:00,
2013-11-07 22:45:00,45.3,39.8,29.94,NNW,331,10.0,12.0,81,0.00,,---,0.02,VWS V14.00,2013-11-08 03:45:00,
2013-11-07 22:50:00,45.0,39.5,29.94,NW,323,8.0,12.0,81,0.00,,---,0.02,VWS V14.00,2013-11-08 03:50:00,
2013-11-07 22:55:00,44.8,40.0,29.94,NW,322,7.0,12.0,83,0.00,,---,0.02,VWS V14.00,2013-11-08 03:55:00,
2013-11-07 23:00:00,44.5,39.4,29.95,NNW,328,9.0,11.0,82,0.00,,---,0.02,VWS V14.00,2013-11-08 04:00:00,
2013-11-07 23:05:00,44.5,39.7,29.94,NNW,335,10.0,12.0,83,0.00,,---,0.02,VWS V14.00,2013-11-08 04:05:00,
2013-11-07 23:10:00,44.4,38.9,29.94,NNW,331,10.0,12.0,81,0.00,,---,0.02,VWS V14.00,2013-11-08 04:10:00,
2013-11-07 23:15:00,44.3,39.5,29.94,NW,325,10.0,12.0,83,0.00,,---,0.02,VWS V14.00,2013-11-08 04:15:00,
2013-11-07 23:20:00,44.3,39.5,29.94,NNW,331,7.0,12.0,83,0.00,,---,0.02,VWS V14.00,2013-11-08 04:20:00,
2013-11-07 23:25:00,44.5,39.7,29.94,NNW,329,7.0,12.0,83,0.00,,---,0.02,VWS V14.00,2013-11-08 04:25:00,
2013-11-07 23:30:00,44.5,38.7,29.94,NW,326,5.0,10.0,80,0.00,,---,0.02,VWS V14.00,2013-11-08 04:30:00,
2013-11-07 23:35:00,44.5,39.0,29.95,NNW,335,9.0,10.0,81,0.00,,---,0.02,VWS V14.00,2013-11-08 04:35:00,
2013-11-07 23:41:00,44.5,38.7,29.95,NNW,328,9.0,10.0,80,0.00,,---,0.02,VWS V14.00,2013-11-08 04:41:00,
2013-11-07 23:46:00,44.6,38.8,29.95,NNW,330,9.0,10.0,80,0.00,,---,0.02,VWS V14.00,2013-11-08 04:46:00,
2013-11-07 23:51:00,44.7,38.6,29.95,NW,325,6.0,11.0,79,0.00,,---,0.02,VWS V14.00,2013-11-08 04:51:00,
2013-11-07 23:56:00,44.8,38.7,29.95,NW,324,10.0,11.0,79,0.00,,---,0.02,VWS V14.00,2013-11-08 04:56:00,